Location: Beccas
(43.4309°N, 0.1528°E)
Time: 02:03:21
(UTC+00:00)

CZ-2C R/B - Pass Details

Date: 15 October 2021
Orbit: 784 x 871 km, 98.2° (Epoch: 02 December)

Event Time Altitude Azimuth Distance (km) Brightness Sun altitude
Rises 18:07:24 0° 15° (NNE) 3,470 5.7 -10.1°
Reaches altitude 10° 18:09:50 10° 17° (NNE) 2,527 5.0 -10.5°
Maximum altitude 18:15:27 71° 102° (ESE) 918 2.7 -11.5°
Drops below altitude 10° 18:20:59 10° 186° (S) 2,485 5.2 -12.5°
Sets 18:23:21 0° 189° (S) 3,407 6.0 -13.0°
